Pecs, Hungary

5:02 PM CEST on May 27, 2017 (GMT +0200)
Pecs

Weather History for LHPP - January, 2014

Change the Weather History Date:

Wednesday, January 29, 2014

  Actual Average Record
Temperature  
Mean Temperature 22 °F -  
Max Temperature 28 °F 41 °F - ()
Min Temperature 17 °F 29 °F - ()
Degree Days  
Heating Degree Days 42    
Moisture  
Dew Point 22 °F    
Average Humidity 89    
Maximum Humidity 100    
Minimum Humidity 77    
Precipitation  
Precipitation 0.01 in 0.04 in - ()
Sea Level Pressure  
Sea Level Pressure 29.80 in    
Wind  
Wind Speed 7 mph ()    
Max Wind Speed 12 mph    
Max Gust Speed -    
Visibility 3.0 miles    
Events Snow    
T = Trace of Precipitation, MM = Missing Value Source: Averaged Metar Reports

Daily Weather History Graph

Daily Weather History Graph

Search for Another Location

Airport or City:

Trip Planner

Search our weather history database for the weather conditions in past years. The results will help you decide how hot, cold, wet, or windy it might be!

Date:

Astronomy

Jan. 29, 2014 Rise Set
Actual Time 7:13 AM CET 4:47 PM CET
Civil Twilight 6:40 AM CET 5:19 PM CET
Nautical Twilight 6:04 AM CET 5:56 PM CET
Astronomical Twilight 5:29 AM CET 6:31 PM CET
Moon 5:35 AM CET (1/29) 3:25 PM CET (1/29)
Length of Visible Light 10h 38m
Length of Day
9h 34m
Waning Crescent, 3% of the Moon is Illuminated
Jan 29
Waning Crescent
Jan 30
New
Feb 6
First Quarter
Feb 15
Full
Feb 22
Last Quarter

Hourly Weather History & Observations

Time (CET) Temp. Windchill Dew Point Humidity Pressure Visibility Wind Dir Wind Speed Gust Speed Precip Events Conditions
12:00 AM 24 °F - 21 °F 83% 29.67 in 2 mi ENE 8.9 mph - -   Mist
12:45 AM 24.8 °F 14.6 °F 21.2 °F 86% 29.62 in 2.5 mi East 10.4 mph - N/A   Overcast
1:00 AM 25 °F - 21 °F 80% 29.67 in 2 mi East 8.9 mph - -   Mist
1:45 AM 24.8 °F 15.3 °F 21.2 °F 86% 29.62 in 2.5 mi East 9.2 mph - N/A   Overcast
2:00 AM 24 °F - 22 °F 87% 29.68 in 2 mi East 8.9 mph - -   Mist
2:45 AM 24.8 °F 14.6 °F 23.0 °F 93% 29.62 in 1.9 mi East 10.4 mph - N/A   Overcast
3:00 AM 24 °F - 22 °F 89% 29.68 in 2 mi East 11.2 mph - -   Mist
3:45 AM 24.8 °F 14.6 °F 23.0 °F 93% 29.62 in 0.9 mi East 10.4 mph - N/A   Overcast
4:00 AM 24 °F - 22 °F 91% 29.68 in 1 mi East 11.2 mph - -   Mist
4:45 AM 24.8 °F 14.0 °F 23.0 °F 93% 29.65 in 0.9 mi East 11.5 mph - N/A Snow Light Snow
5:00 AM 24 °F - 23 °F 92% 29.70 in 1 mi East 11.2 mph - - Snow Light Snow
5:15 AM 24.8 °F 14.0 °F 23.0 °F 93% 29.65 in 1.1 mi East 11.5 mph - N/A Snow Light Snow
5:45 AM 24.8 °F 14.0 °F 23.0 °F 93% 29.65 in 1.1 mi East 11.5 mph - N/A Snow Light Snow
6:00 AM 24 °F - 22 °F 90% 29.71 in 1 mi East 11.2 mph - - Snow Light Snow
6:00 AM - - - N/A% - 2.2 mi East 9.2 mph - N/A   Overcast
6:15 AM 24.8 °F 14.6 °F 23.0 °F 93% 29.65 in 1.2 mi East 10.4 mph - N/A Snow Light Snow
6:45 AM 24.8 °F 16.1 °F 23.0 °F 93% 29.68 in 1.1 mi East 8.1 mph - N/A Snow Light Snow
7:00 AM 24 °F - 22 °F 89% 29.73 in 1 mi East 8.9 mph - - Snow Light Snow
7:15 AM 23.0 °F 14.7 °F 21.2 °F 93% 29.68 in 1.1 mi East 6.9 mph - N/A Snow Light Snow
7:26 AM 23.0 °F 14.7 °F 23.0 °F 100% 29.71 in - East 6.9 mph - N/A   Unknown
7:42 AM 23.0 °F 14.7 °F 21.2 °F 93% 29.77 in - East 6.9 mph - N/A Snow Light Snow
7:45 AM 23.0 °F 14.7 °F 21.2 °F 93% 29.71 in - East 6.9 mph - N/A Snow Light Snow
8:00 AM 24 °F - 22 °F 87% 29.75 in 3 mi East 6.7 mph - - Snow Light Snow
8:12 AM 23.0 °F 13.1 °F 21.2 °F 93% 29.77 in 3.1 mi East 9.2 mph - N/A Snow Light Snow
8:15 AM 23.0 °F 13.1 °F 21.2 °F 93% 29.71 in 3.1 mi East 9.2 mph - N/A Snow Light Snow
8:45 AM 24.8 °F 15.3 °F 23.0 °F 93% 29.71 in 3.1 mi East 9.2 mph - N/A Snow Light Snow
9:00 AM 24 °F - 22 °F 89% 29.77 in - East 8.9 mph - - Snow Light Snow
9:00 AM - - - N/A% - 3.7 mi East 8.1 mph - N/A   Overcast
9:15 AM 24.8 °F 15.3 °F 23.0 °F 93% 29.71 in 3.1 mi East 9.2 mph - N/A Snow Light Snow
9:45 AM 24.8 °F 16.1 °F 23.0 °F 93% 29.74 in 3.1 mi East 8.1 mph - N/A Snow Light Snow
10:00 AM 24 °F - 22 °F 91% 29.78 in - East 6.7 mph - - Snow Light Snow
10:15 AM 24.8 °F 16.1 °F 23.0 °F 93% 29.74 in 3.1 mi East 8.1 mph - N/A Snow Light Snow
10:34 AM 24.8 °F 15.3 °F 23.0 °F 93% 29.83 in 1.6 mi East 9.2 mph - N/A Snow Light Snow
10:45 AM 24.8 °F 16.1 °F 23.0 °F 93% 29.77 in 1.6 mi East 8.1 mph - N/A Snow Light Snow
11:00 AM 25 °F - 23 °F 87% 29.81 in 2 mi East 6.7 mph - - Snow Light Snow
11:12 AM 24.8 °F 17.9 °F 23.0 °F 93% 29.83 in 2.2 mi ESE 5.8 mph - N/A Snow Light Snow
11:15 AM 24.8 °F 17.9 °F 23.0 °F 93% 29.77 in 2.2 mi ESE 5.8 mph - N/A Snow Light Snow
11:45 AM 24.8 °F 17.9 °F 23.0 °F 93% 29.77 in - ESE 5.8 mph - N/A Snow Light Snow
12:00 PM 25 °F - 23 °F 87% 29.82 in 2 mi ESE 6.7 mph - - Snow Light Snow
12:00 PM - - - N/A% - 3.7 mi East 8.1 mph - N/A   Overcast
12:15 PM 24.8 °F 19.1 °F 23.0 °F 93% 29.77 in - East 4.6 mph - N/A Snow Light Snow
12:40 PM 26.6 °F - 23.0 °F 86% 29.83 in 3.7 mi East 2.3 mph - N/A Snow Light Snow
12:41 PM 26.6 °F - 23.0 °F 86% 29.83 in - East 2.3 mph - N/A   Unknown
12:45 PM 26.6 °F - 23.0 °F 86% 29.77 in 3.7 mi East 2.3 mph - N/A Snow Light Snow
1:00 PM 26 °F - 23 °F 85% 29.82 in 4 mi East 2.2 mph - - Snow Light Snow
1:15 PM 28.4 °F - 24.8 °F 86% 29.77 in 5.0 mi Calm Calm - N/A   Mostly Cloudy
1:45 PM 26.6 °F - 23.0 °F 86% 29.77 in 5.0 mi Calm Calm - N/A   Mostly Cloudy
2:00 PM 27 °F - 24 °F 82% 29.83 in 5 mi Calm Calm - - Snow Light Snow
2:15 PM 26.6 °F - 23.0 °F 86% 29.80 in 6.2 mi Calm Calm - N/A   Mostly Cloudy
2:45 PM 26.6 °F - 23.0 °F 86% 29.80 in 4.3 mi SSE 2.3 mph - N/A   Overcast
3:00 PM 27 °F - 23 °F 79% 29.85 in 4 mi SSE 2.2 mph - -   Partly Cloudy
3:00 PM - - - N/A% - 5.0 mi Variable 3.5 mph - N/A   Overcast
3:15 PM 26.6 °F - 23.0 °F 86% 29.83 in 5.0 mi South 2.3 mph - N/A   Overcast
3:45 PM 26.6 °F - 23.0 °F 86% 29.83 in 5.0 mi SSW 2.3 mph - N/A   Overcast
4:00 PM 27 °F - 23 °F 77% 29.88 in 5 mi SSW 2.2 mph - -   Partly Cloudy
4:15 PM 26.6 °F 22.6 °F 23.0 °F 86% 29.86 in 5.0 mi SSW 3.5 mph - N/A   Overcast
4:45 PM 26.6 °F - 23.0 °F 86% 29.86 in 4.3 mi South 2.3 mph - N/A   Overcast
5:00 PM 26 °F - 23 °F 82% 29.90 in 4 mi South 2.2 mph - -   Partly Cloudy
5:15 PM 26.6 °F - 23.0 °F 86% 29.86 in 4.3 mi SSE 2.3 mph - N/A   Overcast
5:45 PM 24.8 °F 19.1 °F 23.0 °F 93% 29.86 in 4.3 mi SE 4.6 mph - N/A   Overcast
6:00 PM 25 °F - 23 °F 87% 29.91 in 4 mi SE 4.5 mph - -   Partly Cloudy
6:15 PM 24.8 °F 17.9 °F 23.0 °F 93% 29.89 in 4.3 mi SE 5.8 mph - N/A   Overcast
6:45 PM 24.8 °F 19.1 °F 23.0 °F 93% 29.89 in 3.7 mi SSE 4.6 mph - N/A   Overcast
7:00 PM 25 °F - 23 °F 87% 29.94 in 4 mi SSE 4.5 mph - -   Partly Cloudy
7:15 PM 24.8 °F 19.1 °F 23.0 °F 93% 29.89 in 3.7 mi SSE 4.6 mph - N/A   Overcast
7:45 PM 26.6 °F 22.6 °F 23.0 °F 86% 29.92 in 3.7 mi South 3.5 mph - N/A   Overcast
8:00 PM 26 °F - 23 °F 83% 29.96 in 4 mi South 2.2 mph - -   Partly Cloudy
8:15 PM 24.8 °F 20.5 °F 23.0 °F 93% 29.92 in 3.7 mi SSE 3.5 mph - N/A   Overcast
8:45 PM 24.8 °F 17.9 °F 23.0 °F 93% 29.92 in 3.7 mi SE 5.8 mph - N/A   Overcast
9:00 PM 25 °F - 22 °F 86% 29.98 in 4 mi SE 4.5 mph - -   Partly Cloudy
9:45 PM 23.0 °F 18.4 °F 21.2 °F 93% 29.95 in 3.7 mi SSE 3.5 mph - N/A   Scattered Clouds
9:55 PM 21.2 °F 16.4 °F 19.4 °F 93% 30.01 in 2.5 mi South 3.5 mph - N/A   Scattered Clouds
10:00 PM 22 °F - 21 °F 92% 30.00 in 4 mi SSE 2.2 mph - -   Partly Cloudy
10:45 PM 17.6 °F 9.3 °F 15.8 °F 93% 29.95 in 1.2 mi ESE 5.8 mph - N/A   Mist
11:00 PM 17 °F - 16 °F 93% 30.02 in 1 mi ESE 4.5 mph - -   Mist
11:45 PM 17.6 °F 9.3 °F 15.8 °F 93% 29.98 in 1.2 mi ESE 5.8 mph - N/A   Mist